Location: Chapel Hill
(35.9132°N, 79.0558°W)
Time: 21:18:42
(UTC-04:00)

ISS - Visible Passes

Search period start: 15 April 2024 00:00
Search period end: 25 April 2024 00:00
Orbit: 413 x 419 km, 51.6° (Epoch: 15 April)

Date Brightness Start Highest point End Pass type
(mag) Time Alt. Az. Time Alt. Az. Time Alt. Az.
18 Apr -1.9 05:44:17 10° S 05:47:05 25° SE 05:49:54 10° ENE visible
19 Apr -1.2 04:57:14 11° SSE 04:58:34 14° SE 05:00:21 10° E visible
20 Apr -3.8 05:43:39 16° SW 05:46:14 89° SE 05:49:34 10° NE visible
21 Apr -3.1 04:57:02 40° SSE 04:57:33 43° SE 05:00:44 10° ENE visible
22 Apr -1.2 04:10:18 17° E 04:10:18 17° E 04:11:35 10° ENE visible
22 Apr -2.5 05:43:11 14° W 05:45:30 30° NW 05:48:30 10° NNE visible
23 Apr -3.5 04:56:20 51° WNW 04:56:37 53° NW 04:59:53 10° NE visible
24 Apr -1.7 04:09:24 28° NE 04:09:24 28° NE 04:11:06 10° NE visible
24 Apr -1.4 05:42:54 10° WNW 05:44:51 14° NNW 05:46:47 10° N visible
